Casa Grande, AZ

12:02 PM MST on October 23, 2019 (GMT -0700)
Casa Grande Municipal

Weather History for KCGZ - September, 2019

Change the Weather History Date:

Sunday, September 22, 2019

  Actual Average Record
Temperature  
Mean Temperature 79 °F -  
Max Temperature 96 °F 94 °F 104 °F (2003)
Min Temperature 62 °F 66 °F 53 °F (2004)
Cooling Degree Days 14    
Growing Degree Days 29 (Base 50)    
Moisture  
Dew Point 46 °F    
Average Humidity 30    
Maximum Humidity 65    
Minimum Humidity 16    
Precipitation  
Precipitation 0.00 in - - ()
Sea Level Pressure  
Sea Level Pressure 29.89 in    
Wind  
Wind Speed 4 mph ()    
Max Wind Speed 20 mph    
Max Gust Speed 23 mph    
Visibility 10.0 miles    
Events      
Averages and records for this station are not official NWS values.
T = Trace of Precipitation, MM = Missing Value Source: Averaged Metar Reports

Daily Weather History Graph

Daily Weather History Graph

Search for Another Location

Airport or City:

Astronomy

Sep. 22, 2019 Rise Set
Actual Time 6:15 AM MST 6:23 PM MST
Civil Twilight 5:50 AM MST 6:48 PM MST
Nautical Twilight 5:21 AM MST 7:17 PM MST
Astronomical Twilight 4:52 AM MST 7:46 PM MST
Moon No Moon Rise 2:03 PM MST (9/22)
Length of Visible Light 12h 58m
Length of Day
12h 08m
Last Quarter, 43% of the Moon is Illuminated
Sep 22
Last Quarter
Sep 28
New
Oct 5
First Quarter
Oct 13
Full
Oct 21
Last Quarter

Hourly Weather History & Observations

Time (MST) Temp. Heat Index Dew Point Humidity Pressure Visibility Wind Dir Wind Speed Gust Speed Precip Events Conditions
12:56 AM 73.0 °F - 32.0 °F 22% 29.87 in 10.0 mi ESE 3.5 mph - N/A   Clear
1:56 AM 71.1 °F - 34.0 °F 26% 29.88 in 10.0 mi Calm Calm - N/A   Partly Cloudy
2:56 AM 66.9 °F - 32.0 °F 27% 29.87 in 10.0 mi Calm Calm - N/A   Clear
3:56 AM 69.1 °F - 35.1 °F 29% 29.88 in 10.0 mi WSW 4.6 mph - N/A   Scattered Clouds
4:56 AM 66.9 °F - 35.1 °F 31% 29.89 in 10.0 mi Calm Calm - N/A   Clear
5:56 AM 62.1 °F - 33.1 °F 34% 29.91 in 10.0 mi Calm Calm - N/A   Clear
6:56 AM 66.9 °F - 39.0 °F 36% 29.93 in 10.0 mi ENE 4.6 mph - N/A   Clear
7:56 AM 73.9 °F - 42.1 °F 32% 29.95 in 10.0 mi East 5.8 mph - N/A   Clear
8:56 AM 79.0 °F - 48.0 °F 34% 29.96 in 10.0 mi East 5.8 mph - N/A   Clear
9:56 AM 84.0 °F - 48.9 °F 29% 29.96 in 10.0 mi East 4.6 mph - N/A   Clear
10:56 AM 89.1 °F - 43.0 °F 20% 29.95 in 10.0 mi Variable 3.5 mph - N/A   Clear
11:56 AM 91.9 °F - 39.9 °F 16% 29.93 in 10.0 mi East 4.6 mph - N/A   Clear
12:56 PM 93.0 °F - 43.0 °F 18% 29.91 in 10.0 mi Calm Calm - N/A   Clear
1:56 PM 93.0 °F - 48.9 °F 22% 29.88 in 10.0 mi South 3.5 mph - N/A   Clear
2:56 PM 95.0 °F - 50.0 °F 22% 29.86 in 10.0 mi Variable 4.6 mph - N/A   Clear
3:56 PM 95.0 °F - 46.9 °F 19% 29.84 in 10.0 mi North 5.8 mph 16.1 mph N/A   Clear
4:56 PM 96.1 °F - 48.0 °F 19% 29.83 in 10.0 mi NNW 8.1 mph - N/A   Clear
5:56 PM 93.0 °F - 48.0 °F 21% 29.83 in 9.0 mi North 9.2 mph - N/A   Clear
6:56 PM 90.0 °F - 48.0 °F 24% 29.83 in 10.0 mi North 6.9 mph - N/A   Clear
7:56 PM 87.1 °F - 46.9 °F 25% 29.86 in 10.0 mi North 5.8 mph - N/A   Partly Cloudy
8:56 PM 88.0 °F - 52.0 °F 29% 29.88 in 10.0 mi South 6.9 mph - N/A   Clear
9:56 PM 86.0 °F 88.2 °F 66.0 °F 51% 29.89 in 10.0 mi South 19.6 mph 23.0 mph N/A   Partly Cloudy
10:56 PM 82.0 °F 85.5 °F 69.1 °F 65% 29.90 in 10.0 mi SSW 17.3 mph - 0.00 in   Mostly Cloudy
11:56 PM 82.0 °F 84.9 °F 68.0 °F 62% 29.90 in 10.0 mi SSW 16.1 mph - 0.00 in   Scattered Clouds